Location: Inglewood
(33.9617°N, 118.3531°W)
Time: 02:17:11
(UTC+00:00)

Cosmos 1417 Rocket - Pass Details

Date: 03 August 2024
Orbit: 952 x 997 km, 83.0° (Epoch: 08 September)

Event Time Altitude Azimuth Distance (km) Brightness Sun altitude
Rises 12:08:51 0° 189° (S) 3,619 7.1 -11.7°
Reaches altitude 10° 12:11:20 10° 191° (SSW) 2,673 6.4 -11.2°
Maximum altitude 12:17:26 74° 276° (W) 991 4.4 -10.1°
Drops below altitude 10° 12:23:33 10° 2° (N) 2,684 7.2 -9.0°
Sets 12:26:04 0° 4° (N) 3,635 8.0 -8.5°
